Location: Unspecified
(0.0000°N, 0.0000°E)
Time: 16:23:08
(UTC+00:00)

Vanguard 2 Rocket - Pass Details

Date: 22 November 2019
Orbit: 554 x 3326 km, 32.9° (Epoch: 13 December)

Event Time Altitude Azimuth Distance (km) Brightness Sun altitude
Rises 08:33:43 0° 295° (WNW) 4,946 10.2 38.9°
Reaches altitude 10° 08:36:29 10° 292° (WNW) 4,259 9.9 39.5°
Maximum altitude 08:49:00 65° 213° (SSW) 2,869 10.0 42.3°
Drops below altitude 10° 09:08:30 10° 134° (SE) 6,268 12.1 46.5°
Sets 09:13:39 0° 131° (SE) 7,313 12.2 47.6°
